Time,TemperatureF,DewpointF,PressureIn,WindDirection,WindDirectionDegrees,WindSpeedMPH,WindSpeedGustMPH,Humidity,HourlyPrecipIn,Conditions,Clouds,dailyrainin,SoftwareType,DateUTC
2014-01-02 00:00:00,-4.9,-10.8,29.88,NNE,22,0.0,0.0,75,0.00,,,-99.99,VWS V12.07,2014-01-02 06:00:00,
2014-01-02 00:05:00,-4.9,-10.8,29.88,NNE,22,0.0,0.0,75,0.00,,,-99.99,VWS V12.07,2014-01-02 06:05:00,
2014-01-02 00:10:00,-4.9,-10.8,29.88,NNE,22,0.0,0.0,75,0.00,,,-99.99,VWS V12.07,2014-01-02 06:10:00,
2014-01-02 00:15:00,-4.9,-10.8,29.87,NNE,22,0.0,0.0,75,0.00,,,-99.99,VWS V12.07,2014-01-02 06:15:00,
2014-01-02 00:20:00,-5.0,-10.9,29.88,NNE,22,0.0,0.0,75,0.00,,,-99.99,VWS V12.07,2014-01-02 06:20:00,
2014-01-02 00:25:00,-5.0,-10.9,29.87,NNE,22,0.0,0.0,75,0.00,,,-99.99,VWS V12.07,2014-01-02 06:25:00,
2014-01-02 00:30:00,-5.0,-10.9,29.87,NNE,22,0.0,0.0,75,0.00,,,-99.99,VWS V12.07,2014-01-02 06:30:00,
2014-01-02 00:35:00,-5.0,-10.9,29.87,NNE,22,0.0,0.0,75,0.00,,,-99.99,VWS V12.07,2014-01-02 06:35:00,
2014-01-02 00:40:00,-5.0,-10.9,29.87,NNE,22,0.0,0.0,75,0.00,,,-99.99,VWS V12.07,2014-01-02 06:40:00,
2014-01-02 00:45:00,-5.0,-10.9,29.87,NNE,22,0.0,0.0,75,0.00,,,-99.99,VWS V12.07,2014-01-02 06:45:00,
2014-01-02 00:50:00,-5.0,-10.9,29.86,NNE,22,0.0,0.0,75,0.00,,,-99.99,VWS V12.07,2014-01-02 06:50:00,
2014-01-02 00:55:00,-5.0,-10.9,29.86,NNE,22,0.0,0.0,75,0.00,,,-99.99,VWS V12.07,2014-01-02 06:55:00,
2014-01-02 01:00:00,-5.0,-10.9,29.87,NNE,22,0.0,0.0,75,0.00,,,-99.99,VWS V12.07,2014-01-02 07:00:00,
2014-01-02 01:05:00,-5.2,-11.1,29.86,NNE,22,0.0,0.0,75,0.00,,,-99.99,VWS V12.07,2014-01-02 07:05:00,
2014-01-02 01:10:00,-5.2,-11.1,29.87,NNE,22,0.0,0.0,75,0.00,,,-99.99,VWS V12.07,2014-01-02 07:10:00,
2014-01-02 01:15:00,-5.2,-11.1,29.86,NNE,22,0.0,0.0,75,0.00,,,-99.99,VWS V12.07,2014-01-02 07:15:00,
2014-01-02 01:20:00,-5.4,-11.3,29.86,NNE,22,0.0,0.0,75,0.00,,,-99.99,VWS V12.07,2014-01-02 07:20:00,
2014-01-02 01:25:00,-5.6,-11.5,29.87,NNE,22,0.0,0.0,75,0.00,,,-99.99,VWS V12.07,2014-01-02 07:25:00,
2014-01-02 01:30:00,-5.9,-11.8,29.87,NNE,22,0.0,0.0,75,0.00,,,-99.99,VWS V12.07,2014-01-02 07:30:00,
2014-01-02 01:35:00,-5.9,-11.8,29.87,NNE,22,0.0,0.0,75,0.00,,,-99.99,VWS V12.07,2014-01-02 07:35:00,
2014-01-02 01:40:00,-6.1,-11.9,29.87,NNE,22,0.0,0.0,75,0.00,,,-99.99,VWS V12.07,2014-01-02 07:40:00,
2014-01-02 01:45:00,-6.5,-12.3,29.87,NNE,22,0.0,0.0,75,0.00,,,-99.99,VWS V12.07,2014-01-02 07:45:00,
2014-01-02 01:50:00,-6.5,-12.3,29.87,NNE,22,0.0,0.0,75,0.00,,,-99.99,VWS V12.07,2014-01-02 07:50:00,
2014-01-02 01:55:00,-6.8,-12.6,29.87,NNE,22,0.0,0.0,75,0.00,,,-99.99,VWS V12.07,2014-01-02 07:55:00,
2014-01-02 02:00:00,-7.0,-12.8,29.87,NNE,22,0.0,0.0,75,0.00,,,-99.99,VWS V12.07,2014-01-02 08:00:00,
2014-01-02 02:05:00,-7.2,-13.0,29.87,NNE,22,0.0,0.0,75,0.00,,,-99.99,VWS V12.07,2014-01-02 08:05:00,
2014-01-02 02:10:00,-7.4,-13.2,29.87,NNE,22,0.0,0.0,75,0.00,,,-99.99,VWS V12.07,2014-01-02 08:10:00,
2014-01-02 02:15:00,-7.4,-13.2,29.87,NNE,22,0.0,0.0,75,0.00,,,-99.99,VWS V12.07,2014-01-02 08:15:00,
2014-01-02 02:20:00,-7.7,-13.5,29.87,NNE,22,0.0,0.0,75,0.00,,,-99.99,VWS V12.07,2014-01-02 08:20:00,
2014-01-02 02:25:00,-7.7,-13.5,29.87,NNE,22,0.0,0.0,75,0.00,,,-99.99,VWS V12.07,2014-01-02 08:25:00,
2014-01-02 02:30:00,-7.7,-13.5,29.87,NNE,22,0.0,0.0,75,0.00,,,-99.99,VWS V12.07,2014-01-02 08:30:00,
2014-01-02 02:35:00,-7.9,-13.7,29.88,NNE,22,0.0,0.0,75,0.00,,,-99.99,VWS V12.07,2014-01-02 08:35:00,
2014-01-02 02:40:00,-7.9,-13.7,29.87,NNE,22,0.0,0.0,75,0.00,,,-99.99,VWS V12.07,2014-01-02 08:40:00,
2014-01-02 02:45:00,-7.9,-13.7,29.87,NNE,22,0.0,0.0,75,0.00,,,-99.99,VWS V12.07,2014-01-02 08:45:00,
2014-01-02 02:50:00,-7.9,-13.7,29.87,NNE,22,0.0,0.0,75,0.00,,,-99.99,VWS V12.07,2014-01-02 08:50:00,
2014-01-02 02:55:00,-7.9,-13.4,29.87,NNE,22,0.0,0.0,76,0.00,,,-99.99,VWS V12.07,2014-01-02 08:55:00,
2014-01-02 03:00:00,-7.9,-13.4,29.86,NNE,22,0.0,0.0,76,0.00,,,-99.99,VWS V12.07,2014-01-02 09:00:00,
2014-01-02 03:10:00,-7.9,-13.4,29.86,NNE,22,0.0,0.0,76,0.00,,,-99.99,VWS V12.07,2014-01-02 09:10:00,
2014-01-02 03:15:00,-7.9,-13.4,29.86,NNE,22,0.0,0.0,76,0.00,,,-99.99,VWS V12.07,2014-01-02 09:15:00,
2014-01-02 03:20:00,-7.9,-13.4,29.86,NNE,22,0.0,0.0,76,0.00,,,-99.99,VWS V12.07,2014-01-02 09:20:00,
2014-01-02 03:25:00,-7.9,-13.4,29.86,NNE,22,0.0,0.0,76,0.00,,,-99.99,VWS V12.07,2014-01-02 09:25:00,
2014-01-02 03:30:00,-7.9,-13.4,29.86,NNE,22,0.0,0.0,76,0.00,,,-99.99,VWS V12.07,2014-01-02 09:30:00,
2014-01-02 03:35:00,-7.7,-13.2,29.86,NNE,22,0.0,0.0,76,0.00,,,-99.99,VWS V12.07,2014-01-02 09:35:00,
2014-01-02 03:40:00,-7.7,-13.2,29.86,NNE,22,0.0,0.0,76,0.00,,,-99.99,VWS V12.07,2014-01-02 09:40:00,
2014-01-02 03:45:00,-7.7,-13.2,29.85,NNE,22,0.0,0.0,76,0.00,,,-99.99,VWS V12.07,2014-01-02 09:45:00,
2014-01-02 03:50:00,-7.4,-12.9,29.86,NNE,22,0.0,0.0,76,0.00,,,-99.99,VWS V12.07,2014-01-02 09:50:00,
2014-01-02 03:55:00,-7.4,-12.9,29.86,NNE,22,0.0,0.0,76,0.00,,,-99.99,VWS V12.07,2014-01-02 09:55:00,
2014-01-02 04:00:00,-7.4,-12.9,29.85,NNE,22,0.0,0.0,76,0.00,,,-99.99,VWS V12.07,2014-01-02 10:00:00,
2014-01-02 04:05:00,-7.4,-12.9,29.86,NNE,22,0.0,0.0,76,0.00,,,-99.99,VWS V12.07,2014-01-02 10:05:00,
2014-01-02 04:10:00,-7.4,-12.9,29.86,NNE,22,0.0,0.0,76,0.00,,,-99.99,VWS V12.07,2014-01-02 10:10:00,
2014-01-02 04:15:00,-7.4,-12.9,29.86,NNE,22,0.0,0.0,76,0.00,,,-99.99,VWS V12.07,2014-01-02 10:15:00,
2014-01-02 04:20:00,-7.4,-12.9,29.86,NNE,22,0.0,0.0,76,0.00,,,-99.99,VWS V12.07,2014-01-02 10:20:00,
2014-01-02 04:25:00,-7.4,-12.9,29.85,NNE,22,0.0,0.0,76,0.00,,,-99.99,VWS V12.07,2014-01-02 10:25:00,
2014-01-02 04:30:00,-7.7,-13.2,29.85,NNE,22,0.0,0.0,76,0.00,,,-99.99,VWS V12.07,2014-01-02 10:30:00,
2014-01-02 04:35:00,-7.7,-13.2,29.86,NNE,22,0.0,0.0,76,0.00,,,-99.99,VWS V12.07,2014-01-02 10:35:00,
2014-01-02 04:40:00,-7.9,-13.4,29.86,NNE,22,0.0,0.0,76,0.00,,,-99.99,VWS V12.07,2014-01-02 10:40:00,
2014-01-02 04:45:00,-8.3,-13.8,29.86,NNE,22,0.0,0.0,76,0.00,,,-99.99,VWS V12.07,2014-01-02 10:45:00,
2014-01-02 04:50:00,-8.3,-13.8,29.86,NNE,22,0.0,0.0,76,0.00,,,-99.99,VWS V12.07,2014-01-02 10:50:00,
2014-01-02 04:55:00,-8.6,-14.1,29.86,NNE,22,0.0,0.0,76,0.00,,,-99.99,VWS V12.07,2014-01-02 10:55:00,
2014-01-02 05:00:00,-8.8,-14.3,29.86,NNE,22,0.0,0.0,76,0.00,,,-99.99,VWS V12.07,2014-01-02 11:00:00,
2014-01-02 05:05:00,-9.2,-15.0,29.86,NNE,22,0.0,0.0,75,0.00,,,-99.99,VWS V12.07,2014-01-02 11:05:00,
2014-01-02 05:10:00,-9.4,-15.1,29.86,NNE,22,0.0,0.0,75,0.00,,,-99.99,VWS V12.07,2014-01-02 11:10:00,
2014-01-02 05:15:00,-9.7,-15.4,29.86,NNE,22,0.0,0.0,75,0.00,,,-99.99,VWS V12.07,2014-01-02 11:15:00,
2014-01-02 05:20:00,-9.7,-15.4,29.86,NNE,22,0.0,0.0,75,0.00,,,-99.99,VWS V12.07,2014-01-02 11:20:00,
2014-01-02 05:25:00,-10.1,-15.8,29.86,NNE,22,0.0,0.0,75,0.00,,,-99.99,VWS V12.07,2014-01-02 11:25:00,
2014-01-02 05:30:00,-10.4,-16.1,29.86,NNE,22,0.0,0.0,75,0.00,,,-99.99,VWS V12.07,2014-01-02 11:30:00,
2014-01-02 05:35:00,-10.6,-16.3,29.86,NNE,22,0.0,0.0,75,0.00,,,-99.99,VWS V12.07,2014-01-02 11:35:00,
2014-01-02 05:40:00,-10.8,-16.5,29.86,NNE,22,0.0,0.0,75,0.00,,,-99.99,VWS V12.07,2014-01-02 11:40:00,
2014-01-02 05:45:00,-11.3,-17.0,29.86,NNE,22,0.0,0.0,75,0.00,,,-99.99,VWS V12.07,2014-01-02 11:45:00,
2014-01-02 05:50:00,-11.3,-17.0,29.86,NNE,22,0.0,0.0,75,0.00,,,-99.99,VWS V12.07,2014-01-02 11:50:00,
2014-01-02 05:55:00,-11.5,-17.2,29.86,NNE,22,0.0,0.0,75,0.00,,,-99.99,VWS V12.07,2014-01-02 11:55:00,
2014-01-02 06:00:00,-11.9,-17.6,29.86,NNE,22,0.0,0.0,75,0.00,,,-99.99,VWS V12.07,2014-01-02 12:00:00,
2014-01-02 06:05:00,-12.2,-17.9,29.86,NNE,22,0.0,0.0,75,0.00,,,-99.99,VWS V12.07,2014-01-02 12:05:00,
2014-01-02 06:10:00,-12.4,-18.1,29.86,NNE,22,0.0,0.0,75,0.00,,,-99.99,VWS V12.07,2014-01-02 12:10:00,
2014-01-02 06:15:00,-12.8,-18.5,29.86,NNE,22,0.0,0.0,75,0.00,,,-99.99,VWS V12.07,2014-01-02 12:15:00,
2014-01-02 06:25:00,-13.1,-18.7,29.86,NNE,22,0.0,0.0,75,0.00,,,-99.99,VWS V12.07,2014-01-02 12:25:00,
2014-01-02 06:30:00,-13.5,-19.1,29.86,NNE,22,0.0,0.0,75,0.00,,,-99.99,VWS V12.07,2014-01-02 12:30:00,
2014-01-02 06:35:00,-13.7,-19.3,29.86,NNE,22,0.0,0.0,75,0.00,,,-99.99,VWS V12.07,2014-01-02 12:35:00,
2014-01-02 06:40:00,-13.9,-19.5,29.86,NNE,22,0.0,0.0,75,0.00,,,-99.99,VWS V12.07,2014-01-02 12:40:00,
2014-01-02 06:45:00,-14.2,-19.8,29.86,NNE,22,0.0,0.0,75,0.00,,,-99.99,VWS V12.07,2014-01-02 12:45:00,
2014-01-02 06:50:00,-14.4,-20.0,29.87,NNE,22,0.0,0.0,75,0.00,,,-99.99,VWS V12.07,2014-01-02 12:50:00,
2014-01-02 06:55:00,-14.6,-20.2,29.86,NNE,22,0.0,0.0,75,0.00,,,-99.99,VWS V12.07,2014-01-02 12:55:00,
2014-01-02 07:00:00,-14.9,-20.5,29.87,NNE,22,0.0,0.0,75,0.00,,,-99.99,VWS V12.07,2014-01-02 13:00:00,
2014-01-02 07:05:00,-15.1,-20.7,29.87,NNE,22,0.0,0.0,75,0.00,,,-99.99,VWS V12.07,2014-01-02 13:05:00,
2014-01-02 07:10:00,-15.5,-21.1,29.87,NNE,22,0.0,0.0,75,0.00,,,-99.99,VWS V12.07,2014-01-02 13:10:00,
2014-01-02 07:15:00,-15.7,-21.3,29.86,NNE,22,0.0,0.0,75,0.00,,,-99.99,VWS V12.07,2014-01-02 13:15:00,
2014-01-02 07:20:00,-15.8,-21.4,29.87,NNE,22,0.0,0.0,75,0.00,,,-99.99,VWS V12.07,2014-01-02 13:20:00,
2014-01-02 07:25:00,-16.0,-21.6,29.87,NNE,22,0.0,0.0,75,0.00,,,-99.99,VWS V12.07,2014-01-02 13:25:00,
2014-01-02 07:30:00,-16.4,-22.0,29.87,NNE,22,0.0,0.0,75,0.00,,,-99.99,VWS V12.07,2014-01-02 13:30:00,
2014-01-02 07:35:00,-16.6,-22.1,29.87,NNE,22,0.0,0.0,75,0.00,,,-99.99,VWS V12.07,2014-01-02 13:35:00,
2014-01-02 07:40:00,-16.7,-22.2,29.87,NNE,22,0.0,0.0,75,0.00,,,-99.99,VWS V12.07,2014-01-02 13:40:00,
2014-01-02 07:45:00,-16.9,-22.7,29.87,NNE,22,0.0,0.0,74,0.00,,,-99.99,VWS V12.07,2014-01-02 13:45:00,
2014-01-02 07:50:00,-16.9,-22.7,29.87,NNE,22,0.0,0.0,74,0.00,,,-99.99,VWS V12.07,2014-01-02 13:50:00,
2014-01-02 07:55:00,-17.1,-22.9,29.87,NNE,22,0.0,0.0,74,0.00,,,-99.99,VWS V12.07,2014-01-02 13:55:00,
2014-01-02 08:00:00,-17.3,-23.1,29.88,NNE,22,0.0,0.0,74,0.00,,,-99.99,VWS V12.07,2014-01-02 14:00:00,
2014-01-02 08:05:00,-17.3,-23.1,29.88,NNE,22,0.0,0.0,74,0.00,,,-99.99,VWS V12.07,2014-01-02 14:05:00,
2014-01-02 08:10:00,-17.5,-23.3,29.88,NNE,22,0.0,0.0,74,0.00,,,-99.99,VWS V12.07,2014-01-02 14:10:00,
2014-01-02 08:15:00,-17.5,-23.3,29.87,NNE,22,0.0,0.0,74,0.00,,,-99.99,VWS V12.07,2014-01-02 14:15:00,
2014-01-02 08:20:00,-17.6,-23.4,29.88,NNE,22,0.0,0.0,74,0.00,,,-99.99,VWS V12.07,2014-01-02 14:20:00,
2014-01-02 08:25:00,-17.6,-23.1,29.88,NNE,22,0.0,0.0,75,0.00,,,-99.99,VWS V12.07,2014-01-02 14:25:00,
2014-01-02 08:30:00,-17.6,-23.1,29.88,NNE,22,0.0,0.0,75,0.00,,,-99.99,VWS V12.07,2014-01-02 14:30:00,
2014-01-02 08:35:00,-17.8,-23.3,29.88,NNE,22,0.0,0.0,75,0.00,,,-99.99,VWS V12.07,2014-01-02 14:35:00,
2014-01-02 08:40:00,-17.6,-23.1,29.88,NNE,22,0.0,0.0,75,0.00,,,-99.99,VWS V12.07,2014-01-02 14:40:00,
2014-01-02 08:45:00,-17.6,-23.1,29.88,NNE,22,0.0,0.0,75,0.00,,,-99.99,VWS V12.07,2014-01-02 14:45:00,
2014-01-02 08:50:00,-17.6,-23.1,29.88,NNE,22,0.0,0.0,75,0.00,,,-99.99,VWS V12.07,2014-01-02 14:50:00,
2014-01-02 08:55:00,-17.5,-23.0,29.88,NNE,22,0.0,0.0,75,0.00,,,-99.99,VWS V12.07,2014-01-02 14:55:00,
2014-01-02 09:00:00,-17.1,-22.6,29.88,NNE,22,0.0,0.0,75,0.00,,,-99.99,VWS V12.07,2014-01-02 15:00:00,
2014-01-02 09:05:00,-16.9,-22.4,29.88,NNE,22,0.0,0.0,75,0.00,,,-99.99,VWS V12.07,2014-01-02 15:05:00,
2014-01-02 09:10:00,-16.7,-22.2,29.89,NNE,22,0.0,0.0,75,0.00,,,-99.99,VWS V12.07,2014-01-02 15:10:00,
2014-01-02 09:15:00,-16.0,-21.6,29.89,NNE,22,0.0,0.0,75,0.00,,,-99.99,VWS V12.07,2014-01-02 15:15:00,
2014-01-02 09:20:00,-15.7,-21.0,29.89,NNE,22,0.0,0.0,76,0.00,,,-99.99,VWS V12.07,2014-01-02 15:20:00,
2014-01-02 09:25:00,-14.9,-20.2,29.89,NNE,22,0.0,0.0,76,0.00,,,-99.99,VWS V12.07,2014-01-02 15:25:00,
2014-01-02 09:30:00,-14.0,-19.4,29.90,NNE,22,0.0,0.0,76,0.00,,,-99.99,VWS V12.07,2014-01-02 15:30:00,
2014-01-02 09:35:00,-13.1,-18.5,29.90,NNE,22,0.0,0.0,76,0.00,,,-99.99,VWS V12.07,2014-01-02 15:35:00,
2014-01-02 09:40:00,-12.4,-17.5,29.89,NNE,22,0.0,0.0,77,0.00,,,-99.99,VWS V12.07,2014-01-02 15:40:00,
2014-01-02 09:45:00,-11.5,-16.7,29.89,NNE,22,0.0,0.0,77,0.00,,,-99.99,VWS V12.07,2014-01-02 15:45:00,
2014-01-02 09:50:00,-10.8,-16.0,29.90,NNE,22,0.0,0.0,77,0.00,,,-99.99,VWS V12.07,2014-01-02 15:50:00,
2014-01-02 09:55:00,-10.1,-15.3,29.89,NNE,22,0.0,0.0,77,0.00,,,-99.99,VWS V12.07,2014-01-02 15:55:00,
2014-01-02 10:00:00,-8.8,-13.8,29.89,NNE,22,0.0,0.0,78,0.00,,,-99.99,VWS V12.07,2014-01-02 16:00:00,
2014-01-02 10:05:00,-7.9,-12.9,29.89,NNE,22,0.0,0.0,78,0.00,,,-99.99,VWS V12.07,2014-01-02 16:05:00,
2014-01-02 10:10:00,-7.0,-12.0,29.89,NNE,22,0.0,0.0,78,0.00,,,-99.99,VWS V12.07,2014-01-02 16:10:00,
2014-01-02 10:15:00,-5.8,-10.6,29.90,NNE,22,0.0,0.0,79,0.00,,,-99.99,VWS V12.07,2014-01-02 16:15:00,
2014-01-02 10:20:00,-4.9,-9.7,29.90,NE,45,0.0,0.0,79,0.00,,,-99.99,VWS V12.07,2014-01-02 16:20:00,
2014-01-02 10:25:00,-4.1,-8.9,29.90,NE,45,0.0,0.0,79,0.00,,,-99.99,VWS V12.07,2014-01-02 16:25:00,
2014-01-02 10:30:00,-3.1,-8.0,29.90,NE,45,0.0,0.0,79,0.00,,,-99.99,VWS V12.07,2014-01-02 16:30:00,
2014-01-02 10:35:00,-2.3,-7.2,29.89,NE,45,0.0,0.0,79,0.00,,,-99.99,VWS V12.07,2014-01-02 16:35:00,
2014-01-02 10:40:00,-1.8,-6.7,29.89,NE,45,0.0,0.0,79,0.00,,,-99.99,VWS V12.07,2014-01-02 16:40:00,
2014-01-02 10:45:00,-1.1,-6.0,29.89,NNE,22,0.0,0.0,79,0.00,,,-99.99,VWS V12.07,2014-01-02 16:45:00,
2014-01-02 10:50:00,-0.5,-5.4,29.89,NE,45,5.1,5.1,79,0.00,,,-99.99,VWS V12.07,2014-01-02 16:50:00,
2014-01-02 10:55:00,-0.2,-5.4,29.88,NNE,22,0.0,5.1,78,0.00,,,-99.99,VWS V12.07,2014-01-02 16:55:00,
2014-01-02 11:00:00,0.5,-4.7,29.88,NE,45,0.0,5.1,78,0.00,,,-99.99,VWS V12.07,2014-01-02 17:00:00,
2014-01-02 11:05:00,0.8,-4.4,29.88,NE,45,0.0,0.0,78,0.00,,,-99.99,VWS V12.07,2014-01-02 17:05:00,
2014-01-02 11:10:00,1.2,-4.1,29.88,North,0,0.0,6.2,78,0.00,,,-99.99,VWS V12.07,2014-01-02 17:10:00,
2014-01-02 11:15:00,1.9,-3.4,29.88,NNE,22,0.0,6.2,78,0.00,,,-99.99,VWS V12.07,2014-01-02 17:15:00,
2014-01-02 11:20:00,2.1,-3.4,29.87,NE,45,4.4,4.4,77,0.00,,,-99.99,VWS V12.07,2014-01-02 17:20:00,
2014-01-02 11:25:00,2.1,-3.4,29.87,NNE,22,6.2,6.2,77,0.00,,,-99.99,VWS V12.07,2014-01-02 17:25:00,
2014-01-02 11:30:00,2.4,-3.4,29.87,ENE,68,0.0,6.2,76,0.00,,,-99.99,VWS V12.07,2014-01-02 17:30:00,
2014-01-02 11:35:00,2.8,-3.0,29.87,North,0,0.0,0.0,76,0.00,,,-99.99,VWS V12.07,2014-01-02 17:35:00,
2014-01-02 11:40:00,2.8,-3.0,29.87,North,0,0.0,0.0,76,0.00,,,-99.99,VWS V12.07,2014-01-02 17:40:00,
2014-01-02 11:45:00,2.8,-3.3,29.87,NNE,22,5.8,5.8,75,0.00,,,-99.99,VWS V12.07,2014-01-02 17:45:00,
2014-01-02 11:50:00,2.8,-3.3,29.86,NE,45,0.0,5.8,75,0.00,,,-99.99,VWS V12.07,2014-01-02 17:50:00,
2014-01-02 11:55:00,2.8,-3.3,29.87,NNE,22,0.0,5.8,75,0.00,,,-99.99,VWS V12.07,2014-01-02 17:55:00,
2014-01-02 12:00:00,3.0,-3.1,29.86,NNE,22,8.9,8.9,75,0.00,,,-99.99,VWS V12.07,2014-01-02 18:00:00,
2014-01-02 12:05:00,3.0,-3.4,29.86,NNW,338,0.0,8.9,74,0.00,,,-99.99,VWS V12.07,2014-01-02 18:05:00,
2014-01-02 12:10:00,3.0,-3.4,29.86,NE,45,4.2,8.9,74,0.00,,,-99.99,VWS V12.07,2014-01-02 18:10:00,
2014-01-02 12:15:00,3.0,-3.4,29.86,NE,45,5.3,8.9,74,0.00,,,-99.99,VWS V12.07,2014-01-02 18:15:00,
2014-01-02 12:20:00,3.0,-3.7,29.86,NE,45,5.3,5.3,73,0.00,,,-99.99,VWS V12.07,2014-01-02 18:20:00,
2014-01-02 12:25:00,3.0,-3.7,29.86,NNE,22,0.0,5.3,73,0.00,,,-99.99,VWS V12.07,2014-01-02 18:25:00,
2014-01-02 12:30:00,3.3,-3.4,29.86,NNE,22,0.0,5.3,73,0.00,,,-99.99,VWS V12.07,2014-01-02 18:30:00,
2014-01-02 12:35:00,3.3,-3.4,29.85,North,0,0.0,0.0,73,0.00,,,-99.99,VWS V12.07,2014-01-02 18:35:00,
2014-01-02 12:40:00,3.0,-4.0,29.85,NE,45,4.6,4.6,72,0.00,,,-99.99,VWS V12.07,2014-01-02 18:40:00,
2014-01-02 12:45:00,3.0,-4.0,29.85,NNE,22,0.0,4.6,72,0.00,,,-99.99,VWS V12.07,2014-01-02 18:45:00,
2014-01-02 12:50:00,3.0,-4.0,29.86,NNE,22,6.7,6.7,72,0.00,,,-99.99,VWS V12.07,2014-01-02 18:50:00,
2014-01-02 12:55:00,3.3,-3.7,29.86,NE,45,0.0,6.7,72,0.00,,,-99.99,VWS V12.07,2014-01-02 18:55:00,
2014-01-02 13:00:00,3.3,-3.7,29.86,NW,315,0.0,6.7,72,0.00,,,-99.99,VWS V12.07,2014-01-02 19:00:00,
2014-01-02 13:05:00,3.3,-3.7,29.86,NE,45,0.0,0.0,72,0.00,,,-99.99,VWS V12.07,2014-01-02 19:05:00,
2014-01-02 13:10:00,3.3,-3.7,29.86,North,0,0.0,0.0,72,0.00,,,-99.99,VWS V12.07,2014-01-02 19:10:00,
2014-01-02 13:15:00,3.3,-3.7,29.85,North,0,0.0,0.0,72,0.00,,,-99.99,VWS V12.07,2014-01-02 19:15:00,
2014-01-02 13:25:00,3.3,-3.7,29.85,NE,45,4.9,4.9,72,0.00,,,-99.99,VWS V12.07,2014-01-02 19:25:00,
2014-01-02 13:30:00,3.5,-3.8,29.85,NNE,22,0.0,4.9,71,0.00,,,-99.99,VWS V12.07,2014-01-02 19:30:00,
2014-01-02 13:35:00,3.5,-3.8,29.86,North,0,0.0,0.0,71,0.00,,,-99.99,VWS V12.07,2014-01-02 19:35:00,
2014-01-02 13:40:00,3.9,-3.4,29.86,NE,45,0.0,4.0,71,0.00,,,-99.99,VWS V12.07,2014-01-02 19:40:00,
2014-01-02 13:45:00,3.9,-3.4,29.85,North,0,0.0,4.0,71,0.00,,,-99.99,VWS V12.07,2014-01-02 19:45:00,
2014-01-02 13:50:00,3.9,-3.4,29.86,NE,45,0.0,0.0,71,0.00,,,-99.99,VWS V12.07,2014-01-02 19:50:00,
2014-01-02 13:55:00,3.9,-3.4,29.86,NNE,22,0.0,5.3,71,0.00,,,-99.99,VWS V12.07,2014-01-02 19:55:00,
2014-01-02 14:00:00,3.7,-3.6,29.86,North,0,0.0,5.3,71,0.00,,,-99.99,VWS V12.07,2014-01-02 20:00:00,
2014-01-02 14:05:00,3.7,-3.6,29.86,West,270,5.5,5.5,71,0.00,,,-99.99,VWS V12.07,2014-01-02 20:05:00,
2014-01-02 14:10:00,3.7,-3.6,29.86,North,0,0.0,5.5,71,0.00,,,-99.99,VWS V12.07,2014-01-02 20:10:00,
2014-01-02 14:15:00,3.7,-3.6,29.86,NW,315,0.0,5.5,71,0.00,,,-99.99,VWS V12.07,2014-01-02 20:15:00,
2014-01-02 14:20:00,3.9,-3.4,29.86,North,0,0.0,5.5,71,0.00,,,-99.99,VWS V12.07,2014-01-02 20:20:00,
2014-01-02 14:25:00,3.9,-3.7,29.87,NE,45,4.6,5.5,70,0.00,,,-99.99,VWS V12.07,2014-01-02 20:25:00,
2014-01-02 14:30:00,3.9,-3.7,29.87,NE,45,5.3,5.5,70,0.00,,,-99.99,VWS V12.07,2014-01-02 20:30:00,
2014-01-02 14:35:00,3.7,-3.9,29.87,NE,45,0.0,5.3,70,0.00,,,-99.99,VWS V12.07,2014-01-02 20:35:00,
2014-01-02 14:40:00,3.5,-4.1,29.88,ESE,112,0.0,5.3,70,0.00,,,-99.99,VWS V12.07,2014-01-02 20:40:00,
2014-01-02 14:45:00,3.5,-4.1,29.88,NW,315,0.0,5.3,70,0.00,,,-99.99,VWS V12.07,2014-01-02 20:45:00,
2014-01-02 14:50:00,3.5,-4.1,29.87,NNE,22,0.0,0.0,70,0.00,,,-99.99,VWS V12.07,2014-01-02 20:50:00,
2014-01-02 14:55:00,3.5,-4.1,29.88,NE,45,3.5,3.5,70,0.00,,,-99.99,VWS V12.07,2014-01-02 20:55:00,
2014-01-02 15:00:00,3.3,-4.3,29.88,NE,45,0.0,3.5,70,0.00,,,-99.99,VWS V12.07,2014-01-02 21:00:00,
2014-01-02 15:05:00,3.3,-4.3,29.88,ENE,68,0.0,5.5,70,0.00,,,-99.99,VWS V12.07,2014-01-02 21:05:00,
2014-01-02 15:10:00,3.3,-4.3,29.88,NE,45,0.0,5.5,70,0.00,,,-99.99,VWS V12.07,2014-01-02 21:10:00,
2014-01-02 15:15:00,3.0,-4.6,29.88,NE,45,0.0,6.0,70,0.00,,,-99.99,VWS V12.07,2014-01-02 21:15:00,
2014-01-02 15:20:00,2.8,-4.8,29.88,NE,45,0.0,0.0,70,0.00,,,-99.99,VWS V12.07,2014-01-02 21:20:00,
2014-01-02 15:25:00,2.6,-4.9,29.88,NE,45,0.0,0.0,70,0.00,,,-99.99,VWS V12.07,2014-01-02 21:25:00,
2014-01-02 15:30:00,2.4,-5.1,29.88,NE,45,0.0,0.0,70,0.00,,,-99.99,VWS V12.07,2014-01-02 21:30:00,
2014-01-02 15:35:00,2.1,-5.4,29.88,NE,45,0.0,0.0,70,0.00,,,-99.99,VWS V12.07,2014-01-02 21:35:00,
2014-01-02 15:40:00,2.1,-5.4,29.88,NE,45,0.0,0.0,70,0.00,,,-99.99,VWS V12.07,2014-01-02 21:40:00,
2014-01-02 15:45:00,2.1,-5.4,29.88,NE,45,0.0,0.0,70,0.00,,,-99.99,VWS V12.07,2014-01-02 21:45:00,
2014-01-02 15:50:00,1.9,-5.6,29.88,NE,45,0.0,0.0,70,0.00,,,-99.99,VWS V12.07,2014-01-02 21:50:00,
2014-01-02 15:55:00,1.9,-5.6,29.88,NE,45,0.0,0.0,70,0.00,,,-99.99,VWS V12.07,2014-01-02 21:55:00,
2014-01-02 16:00:00,1.9,-5.6,29.88,North,0,0.0,0.0,70,0.00,,,-99.99,VWS V12.07,2014-01-02 22:00:00,
2014-01-02 16:05:00,1.7,-5.8,29.88,North,0,0.0,0.0,70,0.00,,,-99.99,VWS V12.07,2014-01-02 22:05:00,
2014-01-02 16:10:00,1.5,-6.0,29.88,North,0,0.0,0.0,70,0.00,,,-99.99,VWS V12.07,2014-01-02 22:10:00,
2014-01-02 16:15:00,1.5,-6.0,29.88,North,0,0.0,0.0,70,0.00,,,-99.99,VWS V12.07,2014-01-02 22:15:00,
2014-01-02 16:20:00,1.4,-6.1,29.88,North,0,0.0,0.0,70,0.00,,,-99.99,VWS V12.07,2014-01-02 22:20:00,
2014-01-02 16:25:00,1.2,-6.0,29.88,North,0,0.0,0.0,71,0.00,,,-99.99,VWS V12.07,2014-01-02 22:25:00,
2014-01-02 16:30:00,1.2,-6.0,29.88,North,0,0.0,0.0,71,0.00,,,-99.99,VWS V12.07,2014-01-02 22:30:00,
2014-01-02 16:35:00,1.0,-6.2,29.88,North,0,0.0,0.0,71,0.00,,,-99.99,VWS V12.07,2014-01-02 22:35:00,
2014-01-02 16:40:00,0.6,-6.6,29.88,North,0,0.0,0.0,71,0.00,,,-99.99,VWS V12.07,2014-01-02 22:40:00,
2014-01-02 16:45:00,0.5,-6.7,29.88,North,0,0.0,0.0,71,0.00,,,-99.99,VWS V12.07,2014-01-02 22:45:00,
2014-01-02 16:50:00,0.3,-6.9,29.88,North,0,0.0,0.0,71,0.00,,,-99.99,VWS V12.07,2014-01-02 22:50:00,
2014-01-02 16:55:00,0.1,-7.1,29.88,North,0,0.0,0.0,71,0.00,,,-99.99,VWS V12.07,2014-01-02 22:55:00,
2014-01-02 17:00:00,-0.2,-7.3,29.88,North,0,0.0,0.0,71,0.00,,,-99.99,VWS V12.07,2014-01-02 23:00:00,
2014-01-02 17:05:00,-0.5,-7.6,29.88,North,0,0.0,0.0,71,0.00,,,-99.99,VWS V12.07,2014-01-02 23:05:00,
2014-01-02 17:10:00,-1.1,-8.2,29.88,North,0,0.0,0.0,71,0.00,,,-99.99,VWS V12.07,2014-01-02 23:10:00,
2014-01-02 17:15:00,-1.3,-8.4,29.88,North,0,0.0,0.0,71,0.00,,,-99.99,VWS V12.07,2014-01-02 23:15:00,
2014-01-02 17:20:00,-1.6,-8.7,29.88,North,0,0.0,0.0,71,0.00,,,-99.99,VWS V12.07,2014-01-02 23:20:00,
2014-01-02 17:25:00,-2.2,-9.3,29.88,North,0,0.0,0.0,71,0.00,,,-99.99,VWS V12.07,2014-01-02 23:25:00,
2014-01-02 17:30:00,-2.3,-9.4,29.88,North,0,0.0,0.0,71,0.00,,,-99.99,VWS V12.07,2014-01-02 23:30:00,
2014-01-02 17:40:00,-3.2,-10.2,29.88,North,0,0.0,0.0,71,0.00,,,-99.99,VWS V12.07,2014-01-02 23:40:00,
2014-01-02 17:45:00,-3.4,-10.4,29.88,North,0,0.0,0.0,71,0.00,,,-99.99,VWS V12.07,2014-01-02 23:45:00,
2014-01-02 17:50:00,-3.8,-10.8,29.88,North,0,0.0,0.0,71,0.00,,,-99.99,VWS V12.07,2014-01-02 23:50:00,
2014-01-02 17:55:00,-4.3,-11.3,29.89,North,0,0.0,0.0,71,0.00,,,-99.99,VWS V12.07,2014-01-02 23:55:00,
2014-01-02 18:00:00,-4.7,-11.7,29.88,North,0,0.0,0.0,71,0.00,,,-99.99,VWS V12.07,2014-01-03 00:00:00,
2014-01-02 18:05:00,-4.7,-11.7,29.88,North,0,0.0,0.0,71,0.00,,,-99.99,VWS V12.07,2014-01-03 00:05:00,
2014-01-02 18:10:00,-5.2,-12.2,29.88,North,0,0.0,0.0,71,0.00,,,-99.99,VWS V12.07,2014-01-03 00:10:00,
2014-01-02 18:15:00,-5.2,-12.2,29.88,North,0,0.0,0.0,71,0.00,,,-99.99,VWS V12.07,2014-01-03 00:15:00,
2014-01-02 18:20:00,-5.6,-12.6,29.88,North,0,0.0,0.0,71,0.00,,,-99.99,VWS V12.07,2014-01-03 00:20:00,
2014-01-02 18:25:00,-5.9,-12.9,29.88,North,0,0.0,0.0,71,0.00,,,-99.99,VWS V12.07,2014-01-03 00:25:00,
2014-01-02 18:30:00,-5.9,-12.9,29.88,North,0,0.0,0.0,71,0.00,,,-99.99,VWS V12.07,2014-01-03 00:30:00,
2014-01-02 18:35:00,-6.1,-12.8,29.89,North,0,0.0,0.0,72,0.00,,,-99.99,VWS V12.07,2014-01-03 00:35:00,
2014-01-02 18:40:00,-6.5,-13.1,29.88,North,0,0.0,0.0,72,0.00,,,-99.99,VWS V12.07,2014-01-03 00:40:00,
2014-01-02 18:45:00,-6.7,-13.3,29.88,North,0,0.0,0.0,72,0.00,,,-99.99,VWS V12.07,2014-01-03 00:45:00,
2014-01-02 18:50:00,-6.8,-13.4,29.88,North,0,0.0,0.0,72,0.00,,,-99.99,VWS V12.07,2014-01-03 00:50:00,
2014-01-02 18:55:00,-7.2,-13.8,29.88,North,0,0.0,0.0,72,0.00,,,-99.99,VWS V12.07,2014-01-03 00:55:00,
2014-01-02 19:00:00,-7.4,-14.0,29.88,North,0,0.0,0.0,72,0.00,,,-99.99,VWS V12.07,2014-01-03 01:00:00,
2014-01-02 19:05:00,-7.7,-14.3,29.88,North,0,0.0,0.0,72,0.00,,,-99.99,VWS V12.07,2014-01-03 01:05:00,
2014-01-02 19:10:00,-7.9,-14.5,29.88,North,0,0.0,0.0,72,0.00,,,-99.99,VWS V12.07,2014-01-03 01:10:00,
2014-01-02 19:15:00,-7.9,-14.5,29.88,North,0,0.0,0.0,72,0.00,,,-99.99,VWS V12.07,2014-01-03 01:15:00,
2014-01-02 19:20:00,-8.3,-14.9,29.88,North,0,0.0,0.0,72,0.00,,,-99.99,VWS V12.07,2014-01-03 01:20:00,
2014-01-02 19:25:00,-8.6,-15.2,29.88,North,0,0.0,0.0,72,0.00,,,-99.99,VWS V12.07,2014-01-03 01:25:00,
2014-01-02 19:30:00,-8.8,-15.4,29.88,North,0,0.0,0.0,72,0.00,,,-99.99,VWS V12.07,2014-01-03 01:30:00,
2014-01-02 19:35:00,-8.8,-15.4,29.88,North,0,0.0,0.0,72,0.00,,,-99.99,VWS V12.07,2014-01-03 01:35:00,
2014-01-02 19:40:00,-9.2,-15.8,29.88,North,0,0.0,0.0,72,0.00,,,-99.99,VWS V12.07,2014-01-03 01:40:00,
2014-01-02 19:45:00,-9.5,-16.0,29.88,North,0,0.0,0.0,72,0.00,,,-99.99,VWS V12.07,2014-01-03 01:45:00,
2014-01-02 19:50:00,-9.5,-16.0,29.88,North,0,0.0,0.0,72,0.00,,,-99.99,VWS V12.07,2014-01-03 01:50:00,
2014-01-02 19:55:00,-9.9,-16.4,29.87,North,0,0.0,0.0,72,0.00,,,-99.99,VWS V12.07,2014-01-03 01:55:00,
2014-01-02 20:00:00,-10.1,-16.6,29.87,North,0,0.0,0.0,72,0.00,,,-99.99,VWS V12.07,2014-01-03 02:00:00,
2014-01-02 20:05:00,-10.4,-16.9,29.88,North,0,0.0,0.0,72,0.00,,,-99.99,VWS V12.07,2014-01-03 02:05:00,
2014-01-02 20:10:00,-10.4,-16.9,29.88,North,0,0.0,0.0,72,0.00,,,-99.99,VWS V12.07,2014-01-03 02:10:00,
2014-01-02 20:15:00,-10.6,-17.1,29.88,North,0,0.0,0.0,72,0.00,,,-99.99,VWS V12.07,2014-01-03 02:15:00,
2014-01-02 20:20:00,-10.8,-17.3,29.87,North,0,0.0,0.0,72,0.00,,,-99.99,VWS V12.07,2014-01-03 02:20:00,
2014-01-02 20:25:00,-11.0,-17.5,29.88,North,0,0.0,0.0,72,0.00,,,-99.99,VWS V12.07,2014-01-03 02:25:00,
2014-01-02 20:30:00,-11.3,-17.8,29.88,North,0,0.0,0.0,72,0.00,,,-99.99,VWS V12.07,2014-01-03 02:30:00,
2014-01-02 20:35:00,-11.3,-17.8,29.88,North,0,0.0,0.0,72,0.00,,,-99.99,VWS V12.07,2014-01-03 02:35:00,
2014-01-02 20:40:00,-11.3,-17.8,29.88,North,0,0.0,0.0,72,0.00,,,-99.99,VWS V12.07,2014-01-03 02:40:00,
2014-01-02 20:45:00,-11.3,-17.8,29.88,North,0,0.0,0.0,72,0.00,,,-99.99,VWS V12.07,2014-01-03 02:45:00,
2014-01-02 20:50:00,-11.5,-18.0,29.88,North,0,0.0,0.0,72,0.00,,,-99.99,VWS V12.07,2014-01-03 02:50:00,
2014-01-02 20:55:00,-11.3,-17.8,29.87,North,0,0.0,0.0,72,0.00,,,-99.99,VWS V12.07,2014-01-03 02:55:00,
2014-01-02 21:00:00,-11.3,-17.8,29.87,North,0,0.0,0.0,72,0.00,,,-99.99,VWS V12.07,2014-01-03 03:00:00,
2014-01-02 21:05:00,-11.3,-17.8,29.86,North,0,0.0,0.0,72,0.00,,,-99.99,VWS V12.07,2014-01-03 03:05:00,
2014-01-02 21:10:00,-11.3,-17.8,29.86,North,0,0.0,0.0,72,0.00,,,-99.99,VWS V12.07,2014-01-03 03:10:00,
2014-01-02 21:15:00,-11.0,-17.5,29.86,North,0,0.0,0.0,72,0.00,,,-99.99,VWS V12.07,2014-01-03 03:15:00,
2014-01-02 21:20:00,-11.0,-17.2,29.86,North,0,0.0,0.0,73,0.00,,,-99.99,VWS V12.07,2014-01-03 03:20:00,
2014-01-02 21:25:00,-10.8,-17.0,29.87,North,0,0.0,0.0,73,0.00,,,-99.99,VWS V12.07,2014-01-03 03:25:00,
2014-01-02 21:30:00,-10.6,-16.8,29.87,North,0,0.0,0.0,73,0.00,,,-99.99,VWS V12.07,2014-01-03 03:30:00,
2014-01-02 21:35:00,-10.6,-16.8,29.87,North,0,0.0,0.0,73,0.00,,,-99.99,VWS V12.07,2014-01-03 03:35:00,
2014-01-02 21:40:00,-10.4,-16.6,29.87,North,0,0.0,0.0,73,0.00,,,-99.99,VWS V12.07,2014-01-03 03:40:00,
2014-01-02 21:45:00,-10.4,-16.6,29.87,North,0,0.0,0.0,73,0.00,,,-99.99,VWS V12.07,2014-01-03 03:45:00,
2014-01-02 21:50:00,-10.3,-16.5,29.88,North,0,0.0,0.0,73,0.00,,,-99.99,VWS V12.07,2014-01-03 03:50:00,
2014-01-02 21:55:00,-10.3,-16.5,29.87,North,0,0.0,0.0,73,0.00,,,-99.99,VWS V12.07,2014-01-03 03:55:00,
2014-01-02 22:00:00,-10.1,-16.4,29.87,North,0,0.0,0.0,73,0.00,,,-99.99,VWS V12.07,2014-01-03 04:00:00,
2014-01-02 22:10:00,-9.7,-16.0,29.87,North,0,0.0,0.0,73,0.00,,,-99.99,VWS V12.07,2014-01-03 04:10:00,
2014-01-02 22:15:00,-9.7,-16.0,29.86,North,0,0.0,0.0,73,0.00,,,-99.99,VWS V12.07,2014-01-03 04:15:00,
2014-01-02 22:20:00,-9.7,-16.0,29.86,North,0,0.0,0.0,73,0.00,,,-99.99,VWS V12.07,2014-01-03 04:20:00,
2014-01-02 22:25:00,-9.7,-16.0,29.86,North,0,0.0,0.0,73,0.00,,,-99.99,VWS V12.07,2014-01-03 04:25:00,
2014-01-02 22:30:00,-9.7,-16.0,29.86,North,0,0.0,0.0,73,0.00,,,-99.99,VWS V12.07,2014-01-03 04:30:00,
2014-01-02 22:35:00,-9.7,-16.0,29.86,North,0,0.0,0.0,73,0.00,,,-99.99,VWS V12.07,2014-01-03 04:35:00,
2014-01-02 22:40:00,-9.9,-16.2,29.86,North,0,0.0,0.0,73,0.00,,,-99.99,VWS V12.07,2014-01-03 04:40:00,
2014-01-02 22:45:00,-10.1,-16.4,29.86,North,0,0.0,0.0,73,0.00,,,-99.99,VWS V12.07,2014-01-03 04:45:00,
2014-01-02 22:50:00,-10.3,-16.5,29.85,North,0,0.0,0.0,73,0.00,,,-99.99,VWS V12.07,2014-01-03 04:50:00,
2014-01-02 22:55:00,-10.4,-16.6,29.85,North,0,0.0,0.0,73,0.00,,,-99.99,VWS V12.07,2014-01-03 04:55:00,
2014-01-02 23:00:00,-10.4,-16.6,29.84,North,0,0.0,0.0,73,0.00,,,-99.99,VWS V12.07,2014-01-03 05:00:00,
2014-01-02 23:05:00,-10.6,-16.8,29.84,North,0,0.0,0.0,73,0.00,,,-99.99,VWS V12.07,2014-01-03 05:05:00,
2014-01-02 23:10:00,-11.0,-17.2,29.84,North,0,0.0,0.0,73,0.00,,,-99.99,VWS V12.07,2014-01-03 05:10:00,
2014-01-02 23:15:00,-11.0,-17.2,29.84,North,0,0.0,0.0,73,0.00,,,-99.99,VWS V12.07,2014-01-03 05:15:00,
2014-01-02 23:20:00,-11.3,-17.5,29.84,North,0,0.0,0.0,73,0.00,,,-99.99,VWS V12.07,2014-01-03 05:20:00,
2014-01-02 23:25:00,-11.3,-17.5,29.84,North,0,0.0,0.0,73,0.00,,,-99.99,VWS V12.07,2014-01-03 05:25:00,
2014-01-02 23:30:00,-11.5,-17.7,29.84,North,0,0.0,0.0,73,0.00,,,-99.99,VWS V12.07,2014-01-03 05:30:00,
2014-01-02 23:35:00,-11.9,-18.1,29.84,North,0,0.0,0.0,73,0.00,,,-99.99,VWS V12.07,2014-01-03 05:35:00,
2014-01-02 23:40:00,-11.9,-18.1,29.84,North,0,0.0,0.0,73,0.00,,,-99.99,VWS V12.07,2014-01-03 05:40:00,
2014-01-02 23:50:00,-12.2,-18.4,29.84,North,0,0.0,0.0,73,0.00,,,-99.99,VWS V12.07,2014-01-03 05:50:00,
2014-01-02 23:55:00,-12.4,-18.6,29.83,North,0,0.0,0.0,73,0.00,,,-99.99,VWS V12.07,2014-01-03 05:55:00,